Location: Lewisville
(33.0462°N, 96.9942°W)
Time: 19:31:27
(UTC-06:00)

Envisat - Pass Details

Date: 19 September 2019
Orbit: 764 x 766 km, 98.1° (Epoch: 27 February)

Event Time Altitude Azimuth Distance (km) Brightness Sun altitude
Rises 19:52:54 0° 173° (S) 3,216 6.1 -5.8°
Reaches altitude 10° 19:55:13 10° 175° (S) 2,294 5.4 -6.3°
Maximum altitude 20:00:15 68° 259° (WSW) 822 3.4 -7.4°
Drops below altitude 10° 20:05:19 10° 342° (NNW) 2,309 5.8 -8.4°
Sets 20:07:39 0° 345° (NNW) 3,238 6.6 -8.9°
